Accueil
METAR-TAF:

METAR-TAF

Aéroports :

Aéroport international Angoulême-Cognac

Angoulême, France

latitude: 45-43-46N, longitude: 00-13-08E, altitude: 132 m

Observation

Le bulletin a été fait il y a 30 minutes, à 06:00 UTC
Vent 4 kt de nord/nord-est
Température 16°C
Humidité 77%
Pression 1022 hPa
Visibilité 10 km ou plus
pas de nuages en-dessous de 1500 mètres et pas de cumulonimbus.

METAR: LFBU 200600Z AUTO 03004KT CAVOK 16/12 Q1022 NOSIG

Heure: 08:30 (06:30 UTC)

Prévision

Le bulletin a été fait il y a 1 heure et 30 minutes, à 05:00 UTC
Prévision valable du 20 à 06 UTC au 21 à 06 UTC
Vent 8 kt de nord
Visibilité 10 km ou plus
pas de nuages en-dessous de 1500 mètres et pas de cumulonimbus.

TAF: LFBU 200500Z 2006/2106 36008KT CAVOK

Observations et prévisions météorologiques de plus de 4000 aéroports (messages METAR et TAF).

Les stations disponibles sont représentées par des disques jaunes et rouges sur la carte.

Passer la souris dessus pour voir le nom de la station.

Cliquer dessus pour voir les observations et prévisions météorologiques.

Pour changer de carte: cliquez sur les boutons verts avec une croix noire pour zoomer, sur le bouton vert avec un tiret pour effectuer un zoom arrière, ou sur les flèches vertes pour les cartes adjacentes.


METAR-TAF: